Location: Newark
(45.2500°N, 7.5833°E)
Time: 17:26:51
(UTC+00:00)

Tiros 1 despin weight - Pass Details

Date: 01 February 2020
Orbit: 594 x 642 km, 48.2° (Epoch: 27 February)

Event Time Altitude Azimuth Distance (km) Brightness Sun altitude
Rises 14:56:59 0° 283° (WNW) 2,899 ? 13.7°
Reaches altitude 10° 15:00:05 10° 261° (W) 1,999 ? 13.3°
Maximum altitude 15:02:48 16° 225° (SW) 1,662 ? 13.0°
Drops below altitude 10° 15:05:32 10° 188° (S) 2,007 ? 12.6°
Sets 15:08:40 0° 166° (SSE) 2,918 ? 12.2°
